DL7GAI-7 Weather Reports


time (UTC)temp
C
wind
direction
speed
KPH
gust
KPH
rain 1hr
cm
rain 24hr
cm
rain mn
cm
humidity
%
barometer
mb
20260904173602 30 270 11.3 27.4 0.00 0.00 0.00 37 1013.1
20260904172337 30 270 11.3 27.4 0.00 0.00 0.00 37 1013.1
20260904171017 30 270 11.3 27.4 0.00 0.00 0.00 37 1013.1
20260904165544 30 270 14.5 27.4 0.00 0.00 0.00 34 1013.2
20260904164117 30 270 14.5 27.4 0.00 0.00 0.00 34 1013.2
20260904162805 30 270 14.5 27.4 0.00 0.00 0.00 35 1013.5
20260904161337 30 270 14.5 27.4 0.00 0.00 0.00 35 1013.5
20260904155922 30 270 19.3 35.4 0.00 0.00 0.00 33 1013.8
20260904154507 30 270 19.3 35.4 0.00 0.00 0.00 33 1013.8
20260904153257 30 270 19.3 35.4 0.00 0.00 0.00 32 1014.1
20260904151852 30 270 19.3 35.4 0.00 0.00 0.00 32 1014.1
20260904150522 30 225 17.7 32.2 0.00 0.00 0.00 32 1014.5
20260904145127 30 225 17.7 32.2 0.00 0.00 0.00 32 1014.5
20260904143717 30 225 17.7 32.2 0.00 0.00 0.00 32 1014.5
20260904142417 29 270 17.7 30.6 0.00 0.00 0.00 33 1014.7
20260904141046 29 270 17.7 30.6 0.00 0.00 0.00 33 1014.7
20260904135832 28 270 14.5 25.7 0.00 0.00 0.00 35 1015.4
20260904134532 28 270 14.5 25.7 0.00 0.00 0.00 35 1015.4
20260904133227 28 270 12.9 24.1 0.00 0.00 0.00 37 1015.8
20260904131857 28 270 12.9 24.1 0.00 0.00 0.00 37 1015.8
20260904130527 28 270 14.5 24.1 0.00 0.00 0.00 39 1016.1
20260904125247 28 270 14.5 24.1 0.00 0.00 0.00 39 1016.1
20260904123922 28 270 14.5 24.1 0.00 0.00 0.00 39 1016.1
20260904122557 27 270 11.3 20.9 0.00 0.00 0.00 38 1016.7
20260904121227 27 270 11.3 20.9 0.00 0.00 0.00 38 1016.7
20260904115807 26 270 11.3 16.1 0.00 0.00 0.00 42 1017.4
20260904114527 26 270 11.3 16.1 0.00 0.00 0.00 42 1017.4
20260904113102 25 270 11.3 16.1 0.00 0.00 0.00 45 1018.1
20260904111630 25 270 11.3 16.1 0.00 0.00 0.00 45 1018.1
20260904110257 24 270 8.0 14.5 0.00 0.00 0.00 47 1018.7
20260904105017 24 270 8.0 14.5 0.00 0.00 0.00 47 1018.7
20260904103632 24 270 8.0 14.5 0.00 0.00 0.00 47 1018.7
20260904102323 23 270 8.0 14.5 0.00 0.00 0.00 49 1019.1
20260904101007 23 270 8.0 14.5 0.00 0.00 0.00 49 1019.1
20260904095622 23 180 3.2 9.7 0.00 0.00 0.00 56 1019.4
20260904094302 23 180 3.2 9.7 0.00 0.00 0.00 56 1019.4
20260904092857 22 225 3.2 8.0 0.00 0.00 0.00 57 1019.7
20260904091622 22 225 3.2 8.0 0.00 0.00 0.00 57 1019.7
20260904090212 0 0 0.0 0.0 0.00 0.00 0.00 1
20260904084902 0 0 0.0 0.0 0.00 0.00 0.00 1
20260904083627 0 0 0.0 0.0 0.00 0.00 0.00 1
20260904082312 0 0 0.0 0.0 0.00 0.00 0.00 1
20260904080907 0 0 0.0 0.0 0.00 0.00 0.00 1
20260904075532 0 0 0.0 0.0 0.00 0.00 0.00 1
20260904074251 0 0 0.0 0.0 0.00 0.00 0.00 1
20260904072903 17 0 0.0 3.2 0.00 0.00 0.00 78 1021.1
20260904071521 17 0 0.0 3.2 0.00 0.00 0.00 78 1021.1
20260904070152 15 45 3.2 6.4 0.00 0.00 0.00 86 1021.5
20260904064823 15 45 3.2 6.4 0.00 0.00 0.00 86 1021.5
20260904063511 13 0 3.2 6.4 0.00 0.00 0.00 92 1021.7
20260904062157 13 0 3.2 6.4 0.00 0.00 0.00 92 1021.7
20260904060807 13 0 3.2 6.4 0.00 0.00 0.00 92 1021.7
20260904055402 13 45 4.8 6.4 0.00 0.00 0.00 93 1021.9
20260904054042 13 45 4.8 6.4 0.00 0.00 0.00 93 1021.9
20260904052752 13 0 3.2 6.4 0.00 0.00 0.00 91 1022.2
20260904051402 13 0 3.2 6.4 0.00 0.00 0.00 91 1022.2
20260904050027 13 45 3.2 9.7 0.00 0.00 0.00 88 1022.1
20260904044702 13 45 3.2 9.7 0.00 0.00 0.00 88 1022.1
20260904043332 14 0 4.8 9.7 0.00 0.00 0.00 87 1022.1
20260904042007 14 0 4.8 9.7 0.00 0.00 0.00 87 1022.1
20260904040552 14 315 4.8 8.0 0.00 0.00 0.00 86 1022.2
20260904035135 14 315 4.8 8.0 0.00 0.00 0.00 86 1022.2
20260904033923 14 315 4.8 8.0 0.00 0.00 0.00 86 1022.2
20260904032642 15 0 3.2 6.4 0.00 0.00 0.00 84 1022.3
20260904031202 15 0 3.2 6.4 0.00 0.00 0.00 84 1022.3
20260904025732 16 90 3.2 4.8 0.00 0.00 0.00 81 1022.2
20260904024242 16 90 3.2 4.8 0.00 0.00 0.00 81 1022.2
20260904022922 16 0 3.2 3.2 0.00 0.00 0.00 78 1022.4
20260904021622 16 0 3.2 3.2 0.00 0.00 0.00 78 1022.4
20260904020317 16 0 3.2 6.4 0.00 0.00 0.00 82 1022.6
20260904015002 16 0 3.2 6.4 0.00 0.00 0.00 82 1022.6
20260904013617 16 0 3.2 6.4 0.00 0.00 0.00 82 1022.6
20260904012202 15 45 3.2 6.4 0.00 0.00 0.00 83 1022.8
20260904010930 15 45 3.2 6.4 0.00 0.00 0.00 83 1022.8
20260904005527 15 45 4.8 8.0 0.00 0.00 0.00 79 1022.8
20260904004202 15 45 4.8 8.0 0.00 0.00 0.00 79 1022.8
20260904002817 16 45 3.2 8.0 0.00 0.00 0.00 74 1022.8
20260904001532 16 45 3.2 8.0 0.00 0.00 0.00 74 1022.8
20260904000142 16 45 6.4 8.0 0.00 0.00 0.00 77 1023.0
20260903234807 16 45 6.4 8.0 0.00 0.00 0.00 77 1023.0
20260903233512 16 0 3.2 4.8 0.00 0.00 0.00 74 1022.9
20260903232152 16 0 3.2 4.8 0.00 0.00 0.00 74 1022.9
20260903230752 16 0 3.2 4.8 0.00 0.00 0.00 74 1022.9
20260903225402 17 45 3.2 8.0 0.00 0.00 0.00 69 1022.9
20260903224007 17 45 3.2 8.0 0.00 0.00 0.00 69 1022.9
20260903222742 17 90 6.4 8.0 0.00 0.00 0.00 74 1022.7
20260903221407 17 90 6.4 8.0 0.00 0.00 0.00 74 1022.7
20260903220027 18 315 6.4 11.3 0.00 0.00 0.00 66 1022.4
20260903214627 18 315 6.4 11.3 0.00 0.00 0.00 66 1022.4
20260903213347 19 315 8.0 11.3 0.00 0.00 0.00 62 1022.2
20260903211937 19 315 8.0 11.3 0.00 0.00 0.00 62 1022.2
20260903210702 19 315 8.0 11.3 0.00 0.00 0.00 62 1022.2
20260903205306 18 315 8.0 9.7 0.00 0.00 0.00 65 1022.0
20260903203902 18 315 8.0 9.7 0.00 0.00 0.00 65 1022.0
20260903202649 20 315 4.8 6.4 0.00 0.00 0.00 60 1021.5
20260903201407 20 315 4.8 6.4 0.00 0.00 0.00 60 1021.5
20260903195917 20 45 3.2 4.8 0.00 0.00 0.00 63 1021.3
20260903194542 20 45 3.2 4.8 0.00 0.00 0.00 63 1021.3
20260903193212 20 0 1.6 3.2 0.00 0.00 0.00 66 1021.0
20260903191932 20 0 1.6 3.2 0.00 0.00 0.00 66 1021.0
20260903190642 20 0 1.6 3.2 0.00 0.00 0.00 66 1021.0
20260903185252 22 270 3.2 14.5 0.00 0.00 0.00 56 1020.3
20260903183947 22 270 3.2 14.5 0.00 0.00 0.00 56 1020.3
20260903182637 24 270 4.8 14.5 0.00 0.00 0.00 46 1020.1
20260903181332 24 270 4.8 14.5 0.00 0.00 0.00 46 1020.1
20260903180030 25 270 4.8 17.7 0.00 0.00 0.00 44 1020.0
20260903174747 25 270 4.8 17.7 0.00 0.00 0.00 44 1020.0